WetterOnline ( https://www.wetteronline.de )

Wetter aktuell Gomagoi

Aktuelles Wetter: Reschenpass (1461m)

6-stündlich | Neueste Meldungen
Ortszeit Temperatur Wetter
Mo, 26.10. 19:00 2.2° C Regen
Mo, 26.10. 13:00 5.4° C Nebel
Mo, 26.10. 7:00 4.8° C bedeckt
Mo, 26.10. 1:00 5.8° C bedeckt
So, 25.10. 19:00 6.8° C wolkig
So, 25.10. 13:00 9.0° C wolkig
So, 25.10. 7:00 1.4° C fast wolkenlos
So, 25.10. 2:00 4.2° C wolkenlos
Ortszeit Temperatur Wetter
Mo, 26.10. 23:00 0.8° C leichter Schneeregen
Mo, 26.10. 22:55 1° C leichter Schneeregen
Mo, 26.10. 22:00 1.2° C Schneeregen
Mo, 26.10. 21:55 1° C Schneeregen
Mo, 26.10. 21:00 1.2° C leichter Schneeregen
Mo, 26.10. 20:55 1° C leichter Schneeregen
Mo, 26.10. 20:00 1.6° C leichter Regen
Mo, 26.10. 19:55 2° C leichter Regen
Ortszeit Relative Feuchte Sichtweite
Mo, 26.10. 19:00 98% 1.5 km
Mo, 26.10. 13:00 99% 0.6 km
Mo, 26.10. 7:00 99% 1.5 km
Mo, 26.10. 1:00 96% 10 km
So, 25.10. 19:00 83% 10 km
So, 25.10. 13:00 66% 30 km
So, 25.10. 7:00 96% 12 km
So, 25.10. 2:00 90% 10 km
Ortszeit Relative Feuchte Sichtweite
Mo, 26.10. 23:00 96% 2.0 km
Mo, 26.10. 22:55 93% 2.0 km
Mo, 26.10. 22:00 96% 2.0 km
Mo, 26.10. 21:55 100% 2.0 km
Mo, 26.10. 21:00 92% 2.0 km
Mo, 26.10. 20:55 93% 2.0 km
Mo, 26.10. 20:00 90% 2.0 km
Mo, 26.10. 19:55 87% 2.0 km
Ortszeit Niederschlagsmenge Niederschlagsart
Mo, 26.10. 19:00 14 l/m2 in 12 Std. Regen
Mo, 26.10. 13:00 0.6 l/m2 in 6 Std. Regen, Nebel
Mo, 26.10. 7:00 0.0 l/m2 in 12 Std. -
Mo, 26.10. 1:00 0.0 l/m2 in 6 Std. -
So, 25.10. 19:00 0.0 l/m2 in 12 Std. -
So, 25.10. 13:00 0.0 l/m2 in 6 Std. -
So, 25.10. 7:00 0.0 l/m2 in 12 Std. -
So, 25.10. 2:00 0.0 l/m2 in 6 Std. -
Ortszeit Niederschlagsmenge Niederschlagsart
Mo, 26.10. 23:00 keine Meldung -
Mo, 26.10. 22:55 keine Meldung -
Mo, 26.10. 22:00 keine Meldung -
Mo, 26.10. 21:55 keine Meldung -
Mo, 26.10. 21:00 keine Meldung -
Mo, 26.10. 20:55 keine Meldung -
Mo, 26.10. 20:00 keine Meldung -
Mo, 26.10. 19:55 keine Meldung -
Ortszeit Stärke Spitze Richtung
km/h Bft. km/h Grad Sektor
Mo, 26.10. 19:00 13 3 - 30° NO
Mo, 26.10. 13:00 24 4 - 190° S
Mo, 26.10. 7:00 20 4 - 180° S
Mo, 26.10. 1:00 11 2 - 170° S
So, 25.10. 19:00 11 2 - 160° S
So, 25.10. 13:00 17 3 - 170° S
So, 25.10. 7:00 0 0 - - -
So, 25.10. 2:00 6 1 - 30° NO
Ortszeit Stärke Spitze Richtung
km/h Bft. km/h Grad Sektor
Mo, 26.10. 23:00 9 2 - 100° O
Mo, 26.10. 22:55 9 2 - 100° O
Mo, 26.10. 22:00 9 2 - 30° NO
Mo, 26.10. 21:55 9 2 - 30° NO
Mo, 26.10. 21:00 9 2 - 50° NO
Mo, 26.10. 20:55 9 2 - 50° NO
Mo, 26.10. 20:00 9 2 - 40° NO
Mo, 26.10. 19:55 9 2 - 40° NO
Ortszeit Untergrenze Bedeckung Gattung
total tief tief mittel hoch
Mo, 26.10. 19:00 240 m 8/8 8/8 St - -
Mo, 26.10. 13:00 60 m 8/8 8/8 St - -
Mo, 26.10. 7:00 60 m 8/8 8/8 St - -
Mo, 26.10. 1:00 300 m 8/8 8/8 St - -
So, 25.10. 19:00 450 m 7/8 7/8 Sc - -
So, 25.10. 13:00 600 m 7/8 3/8 Cu - Ci
So, 25.10. 7:00 5400 m 1/8 1/8 - - Ci
So, 25.10. 2:00 - 0/8 0/8 - - -
Ortszeit Bedeckungsgrad in Achtel und Wolkenuntergrenze
Mo, 26.10. 23:00 8(300m)
Mo, 26.10. 22:55 8(300m)
Mo, 26.10. 22:00 8(300m)
Mo, 26.10. 21:55 8(300m)
Mo, 26.10. 21:00 8(300m)
Mo, 26.10. 20:55 8(300m)
Mo, 26.10. 20:00 8(300m)
Mo, 26.10. 19:55 8(300m)
Ortszeit Stationsdruck (hPa) Tendenz (hPa in 3 Std.)
Mo, 26.10. 19:00 841 + 1,0
Mo, 26.10. 13:00 840 - 2,2
Mo, 26.10. 7:00 843 - 1,9
Mo, 26.10. 1:00 848 - 0,6
So, 25.10. 19:00 849 - 0,8
So, 25.10. 13:00 851 - 1,1
So, 25.10. 7:00 853 - 0,1
So, 25.10. 2:00 853 - 0,3
Ortszeit Stationsdruck (hPa) Tendenz (hPa in 3 Std.)
Mo, 26.10. 23:00 842 0,0
Mo, 26.10. 22:55 - keine Meldung
Mo, 26.10. 22:00 842 + 1,2
Mo, 26.10. 21:55 - keine Meldung
Mo, 26.10. 21:00 842 + 1,8
Mo, 26.10. 20:55 - keine Meldung
Mo, 26.10. 20:00 842 + 1,9
Mo, 26.10. 19:55 - keine Meldung
Ortszeit Schneehöhe (cm)
Mo, 26.10. 19:00 -
Mo, 26.10. 13:00 -
Mo, 26.10. 7:00 0
Mo, 26.10. 1:00 -
So, 25.10. 19:00 -
So, 25.10. 13:00 -
So, 25.10. 7:00 0
So, 25.10. 2:00 -
Ortszeit Schneehöhe (cm)
Mo, 26.10. 23:00 -
Mo, 26.10. 22:55 -
Mo, 26.10. 22:00 -
Mo, 26.10. 21:55 -
Mo, 26.10. 21:00 -
Mo, 26.10. 20:55 -
Mo, 26.10. 20:00 -
Mo, 26.10. 19:55 -
Link zu dieser Seite / Seite empfehlen

Das Wetter in ...